GEESAT-6 03

Last updated on Mon Oct 20 2025 00:02:06 GMT+0000 (Coordinated Universal Time)

1 65715U 25214D 25286.73983531 -.00002374 00000+0 -20918-3 0 9990 2 65715 49.9834 11.6054 0013725 9.8155 350.3052 14.91611729 2906
UTC large
Height (km)
Speed (km/s)
/
Latitude / Longitude
Inclination (degrees)
Orbital Period (minutes)
Azimuth
Elevation
Range (km)
Doppler Factor

Next 0 passes for location: London (51.5072 / 0.1276)

Sorry there are no passes over London.